Location: Saratoga Springs
(43.0831°N, 73.7850°W)
Time: 10:38:22
(UTC-04:00)

Vanguard 3 - Pass Details

Date: 29 April 2024
Orbit: 509 x 3233 km, 33.3° (Epoch: 22 May)

Event Time Altitude Azimuth Distance (km) Brightness Sun altitude
Exits shadow 02:38:55 37° 213° (SSW) 4,088 10.1 -27.3°
Maximum altitude 02:46:08 52° 166° (SSE) 3,264 9.8 -26.7°
Drops below altitude 10° 02:59:06 10° 96° (E) 4,503 11.2 -25.4°
Sets 03:02:07 0° 91° (E) 5,186 11.7 -25.1°
